SBI907 UIII-UUEE

Flight info

Callsign SBI907
Flight time N/A
Altitude 34000
Route BOGRA A815 TUTEK M97 LIBZI R497 RO N869 ROTLI A300 ADONI R372 KEPET/K0839F360 R372 NH N992 KUMEP T796 AGNOK/K0837F280 M864 KERUN P164 IDMOR M864 EKSER T612 KOKAD L158 DIMGI
Aircraft A320/M-SDE3FGHIRWY/LB1

Departure

Time 2026-05-09 10:33
Airport Irkutsk International Airport (UIII)

Arrival

Time N/A
Airport Sheremetyevo International Airport (UUEE)
Time Latitude Longitude Altitude Speed Heading
2026-05-09 10:08 52.27131 104.36184 1585 ft 0 kts 177°
2026-05-09 10:24 52.27119 104.36185 1584 ft 3 kts 177°
2026-05-09 10:24 52.27096 104.36216 1584 ft 6 kts 107°
2026-05-09 10:24 52.27093 104.36297 1584 ft 9 kts 101°
2026-05-09 10:25 52.27072 104.36408 1584 ft 12 kts 109°
2026-05-09 10:25 52.27048 104.36519 1584 ft 8 kts 109°
2026-05-09 10:25 52.27026 104.36619 1584 ft 11 kts 109°
2026-05-09 10:25 52.27000 104.36741 1587 ft 12 kts 110°
2026-05-09 10:26 52.26971 104.36869 1589 ft 12 kts 110°
2026-05-09 10:26 52.26941 104.37002 1592 ft 13 kts 110°
2026-05-09 10:26 52.26960 104.37132 1595 ft 13 kts 50°
2026-05-09 10:26 52.26999 104.37275 1597 ft 15 kts 96°
2026-05-09 10:27 52.26960 104.37432 1600 ft 15 kts 114°
2026-05-09 10:27 52.26916 104.37595 1604 ft 16 kts 114°
2026-05-09 10:27 52.26871 104.37771 1608 ft 18 kts 113°
2026-05-09 10:27 52.26820 104.37964 1619 ft 19 kts 113°
2026-05-09 10:28 52.26765 104.38174 1620 ft 21 kts 113°
2026-05-09 10:28 52.26705 104.38398 1622 ft 22 kts 114°
2026-05-09 10:28 52.26641 104.38636 1628 ft 24 kts 114°
2026-05-09 10:28 52.26574 104.38890 1633 ft 25 kts 113°
2026-05-09 10:29 52.26504 104.39156 1639 ft 26 kts 113°
2026-05-09 10:29 52.26430 104.39434 1646 ft 27 kts 114°
2026-05-09 10:29 52.26353 104.39722 1652 ft 28 kts 113°
2026-05-09 10:29 52.26274 104.40020 1668 ft 29 kts 113°
2026-05-09 10:30 52.26192 104.40327 1672 ft 30 kts 113°
2026-05-09 10:30 52.26109 104.40640 1673 ft 30 kts 113°
2026-05-09 10:30 52.26035 104.40917 1681 ft 22 kts 113°
2026-05-09 10:30 52.25997 104.41115 1683 ft 13 kts 82°
2026-05-09 10:31 52.26046 104.41195 1687 ft 8 kts 27°
2026-05-09 10:31 52.26090 104.41227 1685 ft 2 kts 23°
2026-05-09 10:31 52.26097 104.41232 1686 ft 0 kts 23°
2026-05-09 10:31 52.26107 104.41239 1690 ft 4 kts 23°
2026-05-09 10:32 52.26153 104.41271 1688 ft 10 kts 23°
2026-05-09 10:32 52.26221 104.41286 1684 ft 10 kts 328°
2026-05-09 10:32 52.26245 104.41220 1682 ft 21 kts 296°
2026-05-09 10:32 52.26407 104.40619 1673 ft 92 kts 294°
2026-05-09 10:33 52.26745 104.39351 1639 ft 148 kts 293°
2026-05-09 10:33 52.27212 104.37612 1841 ft 176 kts 294°
2026-05-09 10:33 52.27710 104.35763 2541 ft 178 kts 296°
2026-05-09 10:33 52.28241 104.33933 3239 ft 178 kts 296°
2026-05-09 10:34 52.28764 104.32014 3539 ft 195 kts 294°
2026-05-09 10:34 52.30323 104.27984 3963 ft 237 kts 328°
2026-05-09 10:34 52.31893 104.26829 4417 ft 256 kts 340°
2026-05-09 10:35 52.33620 104.25990 5157 ft 261 kts 343°
2026-05-09 10:35 52.35383 104.25206 5944 ft 264 kts 343°
2026-05-09 10:35 52.37156 104.24374 6686 ft 266 kts 342°
2026-05-09 10:35 52.38934 104.23474 7413 ft 270 kts 341°
2026-05-09 10:36 52.40726 104.22510 8150 ft 272 kts 339°
2026-05-09 10:36 52.42520 104.21502 8917 ft 274 kts 339°
2026-05-09 10:36 52.44329 104.20459 9672 ft 276 kts 338°
2026-05-09 10:36 52.46170 104.19383 10120 ft 290 kts 338°
2026-05-09 10:37 52.48142 104.18219 10270 ft 313 kts 339°
2026-05-09 10:37 52.50262 104.16969 10392 ft 334 kts 339°
2026-05-09 10:37 52.52508 104.15644 10665 ft 349 kts 339°
2026-05-09 10:37 52.54808 104.14290 11236 ft 353 kts 339°
2026-05-09 10:38 52.57131 104.12925 11868 ft 356 kts 339°
2026-05-09 10:38 52.59470 104.11550 12501 ft 358 kts 339°
2026-05-09 10:38 52.61809 104.10174 13121 ft 361 kts 339°
2026-05-09 10:38 52.64180 104.08777 13734 ft 363 kts 339°
2026-05-09 10:39 52.66571 104.07363 14287 ft 366 kts 339°
2026-05-09 10:39 52.68971 104.05941 14838 ft 368 kts 339°
2026-05-09 10:39 52.71386 104.04507 15355 ft 370 kts 339°
2026-05-09 10:39 52.73814 104.03061 15864 ft 373 kts 339°
2026-05-09 10:40 52.76261 104.01607 16369 ft 375 kts 339°
2026-05-09 10:40 52.78729 104.00142 16847 ft 378 kts 339°
2026-05-09 10:40 52.81181 103.98686 17321 ft 380 kts 339°
2026-05-09 10:40 52.83680 103.97201 17819 ft 383 kts 339°
2026-05-09 10:41 52.86197 103.95699 18293 ft 386 kts 339°
2026-05-09 10:41 52.88732 103.94182 18706 ft 388 kts 339°
2026-05-09 10:41 52.91275 103.92663 19139 ft 389 kts 339°
2026-05-09 10:41 52.93828 103.91136 19580 ft 391 kts 339°
2026-05-09 10:42 52.96387 103.89602 19988 ft 392 kts 339°
2026-05-09 10:42 52.98957 103.88061 20415 ft 393 kts 339°
2026-05-09 10:42 53.01539 103.86512 20832 ft 395 kts 339°
2026-05-09 10:42 53.04129 103.84953 21246 ft 396 kts 339°
2026-05-09 10:43 53.06731 103.83381 21640 ft 398 kts 339°
2026-05-09 10:43 53.09339 103.81806 22028 ft 400 kts 339°
2026-05-09 10:43 53.11958 103.80223 22412 ft 401 kts 339°
2026-05-09 10:43 53.14575 103.78569 22788 ft 402 kts 334°
2026-05-09 10:44 53.18947 103.71814 23520 ft 408 kts 300°
2026-05-09 10:44 53.23479 103.54233 24670 ft 416 kts 296°
2026-05-09 10:44 53.28105 103.36402 25778 ft 421 kts 295°
2026-05-09 10:44 53.32706 103.18310 26769 ft 426 kts 295°
2026-05-09 10:45 53.37362 102.99903 27725 ft 431 kts 295°
2026-05-09 10:46 53.55436 102.26866 32497 ft 418 kts 295°
2026-05-09 10:46 53.59805 102.08813 33504 ft 416 kts 295°
2026-05-09 10:46 53.64154 101.90797 34446 ft 413 kts 295°
2026-05-09 10:46 53.68419 101.72913 35364 ft 408 kts 294°
2026-05-09 10:47 53.72608 101.55156 35906 ft 409 kts 294°
2026-05-09 10:47 53.80923 101.19568 35870 ft 404 kts 294°
2026-05-09 10:47 53.85025 101.01739 35981 ft 404 kts 293°
2026-05-09 10:48 53.89121 100.83914 35922 ft 409 kts 293°
2026-05-09 10:48 53.93178 100.65995 35786 ft 409 kts 293°
2026-05-09 10:48 53.97212 100.48072 35876 ft 403 kts 292°
2026-05-09 10:48 54.01207 100.30173 35991 ft 403 kts 292°
2026-05-09 10:49 54.05171 100.12197 35927 ft 408 kts 292°
2026-05-09 10:49 54.13051 99.76154 35927 ft 405 kts 292°
2026-05-09 10:50 54.20780 99.40102 35914 ft 403 kts 292°
2026-05-09 10:50 54.28319 99.04317 35894 ft 402 kts 291°
2026-05-09 10:51 54.35846 98.67995 35905 ft 401 kts 291°
2026-05-09 10:51 54.41948 98.37921 35920 ft 401 kts 291°
2026-05-09 10:52 54.49221 98.01677 35942 ft 400 kts 290°
2026-05-09 10:52 54.56320 97.65453 35920 ft 398 kts 290°
2026-05-09 10:53 54.63296 97.29297 35890 ft 396 kts 289°